Location: T�bingen+AIT
(48.5342°N, 9.0700°E)
Time: 15:07:08
(UTC+01:00)

Cosmos 2341 Rocket - Pass Details

Date: 14 September 2017
Orbit: 969 x 1003 km, 82.9° (Epoch: 18 November)

Event Time Altitude Azimuth Distance (km) Brightness Sun altitude
Exits shadow 23:00:56 70° 243° (WSW) 1,028 4.0 -30.3°
Maximum altitude 23:01:24 74° 280° (W) 1,010 4.0 -30.3°
Drops below altitude 10° 23:07:39 10° 6° (N) 2,725 6.8 -31.0°
Sets 23:10:11 0° 9° (N) 3,679 7.6 -31.3°
